K2BIG Weather Reports


Display with metric or nautical units.
time (UTC)temp
F
wind
direction
speed
MPH
gust
MPH
rain 1hr
in
rain 24hr
in
rain mn
in
humidity
%
barometer
mb
20260508014517 46 0.0 0.0 0.00 0.02 0.02 75 1009.4
20260508014017 47 0.0 0.0 0.00 0.02 0.02 75 1009.3
20260508013517 47 0.0 0.0 0.00 0.02 0.02 73 1009.3
20260508013017 47 0.0 0.0 0.00 0.02 0.02 72 1009.3
20260508012517 47 0.0 0.0 0.00 0.02 0.02 69 1009.2
20260508012017 48 0.0 0.0 0.00 0.02 0.02 68 1009.3
20260508011517 48 0.0 0.0 0.00 0.02 0.02 68 1009.3
20260508011017 49 0.0 0.0 0.00 0.02 0.02 66 1009.3
20260508010517 49 0.0 0.0 0.00 0.02 0.02 65 1009.1
20260508010017 49 0.0 0.0 0.00 0.02 0.02 64 1009.0
20260508005517 50 0.0 0.0 0.00 0.02 0.02 62 1009.0
20260508005017 50 0.0 0.0 0.00 0.02 0.02 61 1008.8
20260508004517 50 0.0 0.0 0.00 0.02 0.02 59 1008.7
20260508004017 51 0.0 0.0 0.00 0.02 0.02 59 1008.8
20260508003517 51 0.0 0.0 0.00 0.02 0.02 59 1008.7
20260508003017 52 0.0 0.0 0.00 0.02 0.02 59 1008.7
20260508002517 52 0.0 0.0 0.00 0.02 0.02 58 1008.6
20260508002017 53 0.0 0.0 0.00 0.02 0.02 57 1008.5
20260508001517 53 0.0 0.0 0.00 0.02 0.02 58 1008.5
20260508001017 53 0.0 0.0 0.00 0.02 0.02 55 1008.4
20260508000517 54 0.0 0.0 0.00 0.02 0.02 56 1008.3
20260508000016 54 0.0 0.0 0.00 0.02 0.02 52 1008.2
20260507235517 55 0.0 0.0 0.00 0.02 0.02 54 1008.2
20260507235016 55 0.0 0.0 0.00 0.03 0.02 51 1008.2
20260507234516 56 0.0 0.0 0.00 0.03 0.02 54 1008.3
20260507234016 57 0.0 2.0 0.00 0.04 0.02 55 1008.3
20260507233516 57 0.0 0.0 0.00 0.04 0.02 54 1008.3
20260507233017 57 0.0 2.0 0.00 0.04 0.02 49 1008.2
20260507232517 58 0.0 2.0 0.00 0.04 0.02 51 1008.0
20260507232016 58 0.0 1.0 0.00 0.04 0.02 46 1008.0
20260507231516 58 0.0 2.0 0.00 0.04 0.02 45 1008.0
20260507231016 58 0.0 2.0 0.00 0.04 0.02 46 1008.0
20260507230516 59 270 1.0 2.0 0.00 0.04 0.02 43 1007.9
20260507230017 59 270 1.0 4.0 0.00 0.04 0.02 45 1007.9
20260507225516 59 293 1.0 3.0 0.00 0.04 0.02 42 1007.9
20260507225016 59 270 3.0 7.0 0.00 0.04 0.02 43 1008.0
20260507224516 59 248 1.0 5.0 0.00 0.04 0.02 43 1007.8
20260507224016 60 293 3.0 9.0 0.00 0.04 0.02 42 1007.9
20260507223516 60 315 2.0 7.0 0.00 0.04 0.02 40 1007.9
20260507223016 60 293 1.0 3.0 0.00 0.04 0.02 40 1008.0
20260507222516 60 315 3.0 6.0 0.00 0.04 0.02 39 1008.0
20260507222016 61 293 2.0 3.0 0.00 0.04 0.02 40 1008.0
20260507221516 61 293 2.0 5.0 0.00 0.04 0.02 41 1008.1
20260507221016 62 293 2.0 8.0 0.00 0.04 0.02 39 1008.1
20260507220516 62 270 2.0 7.0 0.00 0.04 0.02 39 1008.1
20260507220016 63 293 4.0 7.0 0.00 0.04 0.02 39 1008.2
20260507215516 63 293 4.0 9.0 0.00 0.04 0.02 39 1008.2
20260507215016 63 270 3.0 8.0 0.00 0.04 0.02 39 1008.2
20260507214516 63 293 3.0 11.0 0.00 0.04 0.02 39 1008.2
20260507214016 63 270 2.0 7.0 0.00 0.04 0.02 39 1008.1
20260507213516 63 293 3.0 9.0 0.00 0.04 0.02 37 1008.1
20260507213016 64 270 3.0 9.0 0.00 0.04 0.02 36 1008.0
20260507212516 65 315 3.0 9.0 0.00 0.04 0.02 35 1008.0
20260507212016 66 315 2.0 7.0 0.00 0.04 0.02 35 1007.9
20260507211516 66 315 3.0 8.0 0.00 0.04 0.02 36 1007.9
20260507211016 66 270 3.0 9.0 0.00 0.04 0.02 38 1007.8
20260507210516 66 270 6.0 12.0 0.00 0.04 0.02 35 1007.8
20260507210016 66 293 5.0 11.0 0.00 0.04 0.02 37 1007.7
20260507205516 66 270 4.0 9.0 0.00 0.04 0.02 38 1007.7
20260507205016 66 270 4.0 16.0 0.00 0.04 0.02 36 1007.8
20260507204516 66 225 2.0 7.0 0.00 0.04 0.02 37 1007.8
20260507204016 66 338 3.0 8.0 0.00 0.04 0.02 39 1007.8
20260507203516 65 270 3.0 7.0 0.00 0.04 0.02 38 1007.8
20260507203016 65 338 1.0 3.0 0.00 0.04 0.02 40 1007.8
20260507202516 64 248 4.0 7.0 0.00 0.04 0.02 40 1007.7
20260507202016 63 293 4.0 9.0 0.00 0.05 0.02 42 1007.8
20260507201516 63 293 3.0 9.0 0.00 0.05 0.02 39 1007.8
20260507201016 64 293 4.0 9.0 0.00 0.05 0.02 38 1007.9
20260507200516 64 315 4.0 9.0 0.00 0.06 0.02 38 1007.8
20260507200016 65 315 3.0 10.0 0.00 0.06 0.02 38 1007.7
20260507195516 65 293 3.0 7.0 0.00 0.07 0.02 37 1007.9
20260507195016 67 315 3.0 7.0 0.00 0.07 0.02 36 1007.9
20260507194516 67 0 3.0 9.0 0.00 0.07 0.02 39 1007.9
20260507194016 66 315 3.0 10.0 0.00 0.07 0.02 40 1007.9
20260507193516 66 293 3.0 9.0 0.00 0.07 0.02 37 1007.9
20260507193016 66 225 4.0 9.0 0.00 0.07 0.02 39 1008.1
20260507192516 66 315 4.0 10.0 0.00 0.08 0.02 36 1008.2
20260507192016 66 225 4.0 9.0 0.00 0.08 0.02 40 1008.3
20260507191516 65 270 2.0 7.0 0.00 0.08 0.02 45 1008.4
20260507191016 64 248 3.0 6.0 0.00 0.08 0.02 44 1008.3
20260507190516 63 248 2.0 7.0 0.00 0.08 0.02 42 1008.5
20260507190016 62 270 1.0 3.0 0.00 0.09 0.02 45 1008.6
20260507185516 63 315 3.0 7.0 0.00 0.09 0.02 40 1008.6
20260507185016 64 315 3.0 8.0 0.00 0.09 0.02 38 1008.7
20260507184516 65 270 5.0 12.0 0.00 0.10 0.02 38 1008.8
20260507184016 65 248 5.0 11.0 0.00 0.10 0.02 43 1008.7
20260507183516 64 270 2.0 8.0 0.00 0.11 0.02 45 1008.8
20260507183016 63 293 2.0 7.0 0.00 0.12 0.02 43 1008.7
20260507182516 63 293 2.0 6.0 0.00 0.13 0.02 41 1008.9
20260507182016 64 293 2.0 4.0 0.00 0.14 0.02 39 1008.9
20260507181516 64 293 3.0 8.0 0.00 0.15 0.02 44 1009.1
20260507181016 65 270 5.0 10.0 0.00 0.15 0.02 38 1009.1
20260507180516 65 315 3.0 9.0 0.00 0.15 0.02 41 1009.1
20260507180016 64 270 1.0 7.0 0.00 0.15 0.02 42 1009.1
20260507175516 64 45 2.0 6.0 0.00 0.15 0.02 42 1009.1
20260507175016 64 315 3.0 7.0 0.00 0.15 0.02 45 1009.3
20260507174516 63 293 2.0 7.0 0.00 0.16 0.02 42 1009.3
20260507174016 63 248 3.0 6.0 0.00 0.16 0.02 40 1009.4
20260507173516 64 203 5.0 10.0 0.00 0.17 0.02 40 1009.5
20260507173016 63 225 5.0 14.0 0.00 0.18 0.02 48 1009.5
20260507172516 63 315 5.0 14.0 0.00 0.21 0.02 40 1009.5
20260507172016 64 225 7.0 12.0 0.00 0.23 0.02 40 1009.7
20260507171516 64 225 4.0 12.0 0.00 0.24 0.02 46 1009.6
20260507171016 64 225 3.0 7.0 0.00 0.24 0.02 41 1009.7
20260507170516 64 248 5.0 10.0 0.00 0.24 0.02 44 1009.8
20260507170016 64 293 4.0 8.0 0.00 0.24 0.02 42 1009.8
20260507165516 63 315 4.0 10.0 0.00 0.24 0.02 46 1009.9
20260507165016 63 293 2.0 6.0 0.00 0.25 0.02 43 1009.8
20260507164516 63 315 3.0 7.0 0.00 0.25 0.02 42 1009.9
20260507164016 63 293 2.0 7.0 0.00 0.25 0.02 48 1009.9
20260507163516 63 225 2.0 6.0 0.00 0.26 0.02 41 1009.9
20260507163016 63 315 2.0 5.0 0.00 0.26 0.02 44 1010.0
20260507162516 63 270 5.0 10.0 0.00 0.27 0.02 46 1010.1
20260507162016 63 293 3.0 8.0 0.00 0.28 0.02 44 1010.1
20260507161516 63 225 3.0 8.0 0.00 0.28 0.02 42 1010.2
20260507161017 63 248 4.0 9.0 0.00 0.28 0.02 51 1010.3
20260507160516 62 248 2.0 6.0 0.00 0.28 0.02 48 1010.3
20260507160016 62 293 3.0 8.0 0.00 0.28 0.02 47 1010.4
20260507155516 61 270 4.0 10.0 0.00 0.29 0.02 44 1010.6
20260507155016 61 293 3.0 10.0 0.00 0.29 0.02 45 1010.7
20260507154516 60 270 3.0 7.0 0.00 0.30 0.02 48 1010.7
20260507154016 61 270 5.0 10.0 0.00 0.30 0.02 48 1010.8
20260507153515 60 315 4.0 9.0 0.00 0.30 0.02 48 1010.9
20260507153016 61 315 4.0 8.0 0.00 0.30 0.02 43 1010.9
20260507152516 60 0 3.0 8.0 0.00 0.30 0.02 45 1010.8
20260507152015 60 315 2.0 5.0 0.00 0.30 0.02 46 1011.1
20260507151516 60 225 5.0 11.0 0.00 0.30 0.02 50 1011.0
20260507151015 60 23 2.0 6.0 0.00 0.30 0.02 52 1011.1
20260507150516 59 293 2.0 8.0 0.00 0.30 0.02 48 1011.1
20260507150015 60 68 3.0 5.0 0.00 0.30 0.02 43 1011.1
20260507145515 60 293 2.0 6.0 0.00 0.30 0.02 50 1011.1
20260507145015 59 293 3.0 7.0 0.00 0.30 0.02 51 1011.2
20260507144515 59 315 2.0 5.0 0.00 0.30 0.02 44 1011.1
20260507144016 60 293 1.0 3.0 0.00 0.30 0.02 43 1011.1
20260507143515 60 293 2.0 7.0 0.00 0.30 0.02 51 1011.3
20260507143015 60 315 2.0 7.0 0.00 0.30 0.02 53 1011.3
20260507142515 59 293 5.0 11.0 0.00 0.30 0.02 52 1011.3
20260507142015 59 293 1.0 3.0 0.00 0.30 0.02 55 1011.3
20260507141515 59 270 2.0 7.0 0.00 0.30 0.02 58 1011.4
20260507141015 58 248 2.0 4.0 0.00 0.30 0.02 53 1011.4
20260507140515 58 225 3.0 7.0 0.00 0.30 0.02 56 1011.5
20260507140015 58 315 2.0 5.0 0.00 0.30 0.02 56 1011.5
20260507135515 57 248 2.0 5.0 0.00 0.30 0.02 59 1011.5
20260507135015 57 293 3.0 7.0 0.00 0.30 0.02 54 1011.5
20260507134515 57 315 2.0 7.0 0.00 0.30 0.02 54 1011.5
20260507134015 58 225 1.0 4.0 0.00 0.30 0.02 55 1011.5
20260507133515 58 293 2.0 6.0 0.00 0.30 0.02 57 1011.5
20260507133015 57 293 2.0 4.0 0.00 0.30 0.02 62 1011.5
20260507132515 57 0 1.0 3.0 0.00 0.30 0.02 56 1011.5
20260507132015 57 270 3.0 6.0 0.00 0.30 0.02 63 1011.5
20260507131515 57 270 3.0 7.0 0.00 0.30 0.02 57 1011.4
20260507131015 57 315 2.0 8.0 0.00 0.30 0.02 63 1011.3
20260507130515 56 315 2.0 5.0 0.00 0.30 0.02 61 1011.3
20260507130015 56 338 1.0 5.0 0.00 0.30 0.02 61 1011.2
20260507125515 55 90 2.0 5.0 0.00 0.30 0.02 63 1011.2
20260507125015 55 293 1.0 3.0 0.00 0.30 0.02 63 1011.2
20260507124515 55 293 3.0 5.0 0.00 0.30 0.02 62 1011.2
20260507124016 55 270 2.0 4.0 0.00 0.30 0.02 63 1011.1
20260507123515 55 315 2.0 4.0 0.00 0.30 0.02 66 1011.1
20260507123015 54 0 2.0 4.0 0.00 0.30 0.02 65 1011.0
20260507122515 54 315 2.0 6.0 0.00 0.30 0.02 66 1011.0
20260507122015 53 293 2.0 5.0 0.00 0.30 0.02 69 1011.1
20260507121515 53 293 2.0 4.0 0.00 0.30 0.02 73 1011.1
20260507121015 52 293 2.0 4.0 0.00 0.30 0.02 75 1011.1
20260507120515 52 270 3.0 8.0 0.00 0.30 0.02 72 1011.1
20260507120015 51 293 2.0 6.0 0.00 0.30 0.02 74 1011.1
20260507115515 50 293 2.0 7.0 0.00 0.30 0.02 76 1011.1
20260507115015 50 293 2.0 8.0 0.00 0.30 0.02 78 1011.1
20260507114515 49 315 2.0 6.0 0.00 0.30 0.02 80 1011.0
20260507114015 49 293 2.0 4.0 0.00 0.30 0.02 81 1010.9
20260507113515 49 293 2.0 7.0 0.00 0.30 0.02 83 1010.9
20260507113015 49 270 1.0 3.0 0.00 0.30 0.02 87 1011.0
20260507112515 48 0.0 3.0 0.00 0.30 0.02 87 1010.9
20260507112015 48 270 1.0 4.0 0.00 0.30 0.02 88 1010.8
20260507111515 48 0.0 2.0 0.00 0.30 0.02 88 1010.7
20260507111015 48 0.0 0.0 0.00 0.30 0.02 89 1010.6
20260507110515 47 0.0 0.0 0.00 0.30 0.02 88 1010.5
20260507110015 47 293 1.0 5.0 0.00 0.30 0.02 88 1010.4
20260507105515 47 293 1.0 4.0 0.00 0.30 0.02 89 1010.4
20260507105015 47 293 1.0 4.0 0.00 0.30 0.02 89 1010.2
20260507104515 47 293 1.0 3.0 0.00 0.30 0.02 90 1010.3
20260507104016 47 293 1.0 4.0 0.00 0.30 0.02 90 1010.2
20260507103515 47 293 1.0 4.0 0.00 0.30 0.02 91 1010.0
20260507103015 47 0.0 2.0 0.00 0.30 0.02 92 1010.0
20260507102515 47 293 1.0 4.0 0.00 0.30 0.02 93 1009.8
20260507102015 47 0.0 0.0 0.00 0.30 0.02 95 1009.8
20260507101515 47 0.0 0.0 0.00 0.30 0.02 95 1009.7
20260507101015 47 0.0 0.0 0.00 0.30 0.02 94 1009.6
20260507100515 47 0.0 2.0 0.00 0.30 0.02 94 1009.6
20260507100015 47 0.0 0.0 0.00 0.30 0.02 94 1009.4
20260507095515 47 0.0 0.0 0.00 0.30 0.02 94 1009.4
20260507095015 47 0.0 0.0 0.00 0.30 0.02 94 1009.3
20260507094515 47 0.0 1.0 0.00 0.30 0.02 93 1009.3
20260507094015 47 0.0 0.0 0.00 0.30 0.02 93 1009.3
20260507093515 47 0.0 0.0 0.00 0.30 0.02 93 1009.2
20260507093015 47 0.0 0.0 0.00 0.30 0.02 93 1009.1
20260507092515 47 0.0 0.0 0.00 0.30 0.02 93 1009.2
20260507092015 47 0.0 0.0 0.00 0.30 0.02 93 1009.3
20260507091515 47 0.0 1.0 0.00 0.30 0.02 92 1009.3
20260507091015 47 0.0 0.0 0.00 0.30 0.02 92 1009.3
20260507090515 47 0.0 0.0 0.00 0.30 0.02 92 1009.4
20260507090015 47 0.0 0.0 0.00 0.30 0.02 91 1009.4
20260507085515 47 0.0 0.0 0.00 0.30 0.02 91 1009.2
20260507085016 48 0.0 0.0 0.00 0.30 0.02 91 1009.1
20260507084515 48 0.0 1.0 0.00 0.30 0.02 90 1009.4
20260507084015 48 0.0 2.0 0.00 0.30 0.02 89 1009.4
20260507083517 48 315 1.0 4.0 0.00 0.30 0.02 89 1009.5
20260507083017 48 0.0 3.0 0.00 0.30 0.02 89 1009.4
20260507082517 48 293 1.0 3.0 0.00 0.30 0.02 89 1009.5
20260507082017 48 315 1.0 4.0 0.00 0.30 0.02 90 1009.6
20260507081517 48 293 1.0 4.0 0.00 0.30 0.02 90 1009.7
20260507081017 48 270 1.0 4.0 0.00 0.30 0.02 90 1009.6
20260507080517 48 270 1.0 9.0 0.00 0.30 0.02 91 1009.7
20260507080017 48 0.0 6.0 0.00 0.30 0.02 92 1009.7
20260507075517 48 0.0 1.0 0.00 0.30 0.02 91 1009.5
20260507075017 48 0.0 3.0 0.00 0.30 0.02 91 1009.6
20260507074517 48 0.0 1.0 0.00 0.30 0.02 91 1009.9
20260507074016 48 270 1.0 3.0 0.00 0.30 0.02 91 1009.7
20260507073517 48 270 1.0 6.0 0.00 0.30 0.02 92 1009.6
20260507073017 49 270 1.0 3.0 0.00 0.30 0.02 93 1009.9
20260507072517 49 270 1.0 3.0 0.00 0.30 0.02 93 1009.7
20260507072017 49 0.0 2.0 0.00 0.30 0.02 93 1009.7
20260507071517 49 0.0 0.0 0.01 0.30 0.02 93 1009.7
20260507071017 49 0.0 1.0 0.01 0.30 0.02 93 1009.7
20260507070517 49 0.0 2.0 0.01 0.30 0.02 93 1009.9
20260507070016 49 0.0 1.0 0.01 0.30 0.02 93 1009.5
20260507065517 50 0.0 1.0 0.01 0.30 0.02 93 1009.8
20260507065016 50 0.0 0.0 0.01 0.30 0.02 93 1009.4
20260507064516 50 0.0 0.0 0.02 0.30 0.02 93 1009.4
20260507064017 50 0.0 0.0 0.02 0.30 0.02 93 1009.4
20260507063517 50 0.0 0.0 0.02 0.30 0.02 93 1009.4
20260507063017 50 0.0 2.0 0.02 0.30 0.02 93 1009.4
20260507062517 50 0.0 1.0 0.02 0.30 0.02 93 1009.5
20260507062017 50 0.0 1.0 0.02 0.30 0.02 92 1009.1
20260507061517 50 0.0 0.0 0.01 0.29 0.01 92 1009.0
20260507061016 51 0.0 0.0 0.01 0.29 0.01 91 1008.9
20260507060517 51 0.0 0.0 0.01 0.29 0.01 90 1008.9
20260507060016 51 0.0 0.0 0.01 0.29 0.01 90 1009.1
20260507055517 51 0.0 2.0 0.01 0.29 0.01 89 1008.9
20260507055017 51 0.0 2.0 0.01 0.29 0.01 89 1008.7
20260507054516 51 0.0 2.0 0.00 0.28 0.00 88 1008.6
20260507054018 52 0.0 2.0 0.00 0.28 0.00 88 1008.7
20260507053516 52 0.0 2.0 0.00 0.28 0.00 87 1008.7
20260507053016 52 0.0 2.0 0.00 0.28 0.00 87 1008.6
20260507052516 52 270 1.0 3.0 0.00 0.28 0.00 87 1008.6
20260507052016 52 0.0 2.0 0.00 0.28 0.00 87 1008.8
20260507051517 52 263 0.0 0.0 0.00 0.28 0.00 87 1008.8
20260507051016 52 270 1.0 3.0 0.00 0.28 0.00 86 1008.9
20260507050516 52 270 1.0 3.0 0.00 0.28 0.00 86 1008.9
20260507050016 52 0.0 1.0 0.00 0.28 0.00 87 1009.0
20260507045516 52 0.0 1.0 0.00 0.28 0.00 86 1009.1
20260507045016 52 270 1.0 4.0 0.00 0.28 0.00 86 1009.1
20260507044516 52 0.0 4.0 0.00 0.28 0.00 87 1009.2
20260507044016 52 0.0 2.0 0.00 0.28 0.00 87 1009.4
20260507043516 52 248 1.0 3.0 0.00 0.28 0.00 87 1009.3
20260507043016 52 270 1.0 3.0 0.00 0.28 0.00 87 1009.3
20260507042516 52 270 1.0 4.0 0.00 0.28 0.00 87 1009.2
20260507042016 52 270 1.0 3.0 0.00 0.28 0.00 87 1009.2
20260507041516 52 203 1.0 4.0 0.00 0.28 0.00 87 1009.1
20260507041016 52 0.0 1.0 0.00 0.28 0.00 87 1009.1
20260507040516 52 0.0 1.0 0.00 0.28 0.00 87 1009.0
20260507040016 52 0.0 2.0 0.00 0.28 0.28 87 1009.2
20260507035515 52 270 1.0 5.0 0.00 0.28 0.28 86 1008.9
20260507035015 52 270 1.0 5.0 0.00 0.28 0.28 87 1009.2
20260507034515 52 293 2.0 4.0 0.00 0.28 0.28 87 1009.2
20260507034015 52 315 1.0 3.0 0.00 0.28 0.28 87 1008.8
20260507033515 52 315 1.0 4.0 0.00 0.28 0.28 86 1008.7
20260507033015 52 293 1.0 3.0 0.00 0.28 0.28 87 1008.8
20260507032515 53 248 1.0 4.0 0.00 0.28 0.28 87 1009.0
20260507032015 53 0.0 3.0 0.00 0.28 0.28 87 1008.8
20260507031515 53 0.0 3.0 0.00 0.28 0.28 87 1008.9
20260507031015 53 158 1.0 3.0 0.00 0.28 0.28 87 1009.0
20260507030515 53 203 1.0 4.0 0.00 0.28 0.28 87 1009.1
20260507030015 53 225 2.0 6.0 0.00 0.28 0.28 87 1009.1
20260507025515 53 225 2.0 5.0 0.00 0.28 0.28 87 1009.1
20260507025020 53 248 2.0 5.0 0.00 0.28 0.28 87 1009.0
20260507024515 53 248 3.0 7.0 0.00 0.28 0.28 87 1009.1
20260507024015 53 270 2.0 7.0 0.00 0.28 0.28 87 1009.1
20260507023515 53 248 2.0 5.0 0.00 0.28 0.28 87 1009.0
20260507023015 53 248 3.0 7.0 0.00 0.28 0.28 87 1009.3
20260507022515 53 248 3.0 7.0 0.00 0.28 0.28 87 1009.4
20260507022015 54 248 3.0 9.0 0.00 0.28 0.28 87 1009.4
20260507021515 54 225 3.0 7.0 0.00 0.28 0.28 87 1009.4
20260507021015 54 248 3.0 9.0 0.00 0.28 0.28 87 1009.3
20260507020515 54 293 1.0 4.0 0.00 0.28 0.28 87 1009.2
20260507020015 54 293 2.0 4.0 0.00 0.28 0.28 87 1009.1
20260507015515 54 293 2.0 7.0 0.00 0.28 0.28 87 1009.0
20260507015015 54 248 3.0 8.0 0.00 0.28 0.28 87 1009.1